EDT,Max TemperatureF,Mean TemperatureF,Min TemperatureF,Max Dew PointF,MeanDew PointF,Min DewpointF,Max Humidity, Mean Humidity, Min Humidity, Max Sea Level PressureIn, Mean Sea Level PressureIn, Min Sea Level PressureIn, Max VisibilityMiles, Mean VisibilityMiles, Min VisibilityMiles, Max Wind SpeedMPH, Mean Wind SpeedMPH, Max Gust SpeedMPH,PrecipitationIn, CloudCover, Events, WindDirDegrees
2012-10-1,63,54,45,50,46,43,93,74,50,29.95,29.91,29.88,10,10,10,13,6,20,0.00,2,,227
2012-10-2,64,58,52,63,58,47,97,91,75,29.93,29.89,29.84,10,7,2,8,4,,0.17,8,Rain,53
2012-10-3,71,64,57,65,60,56,100,87,63,30.16,30.01,29.92,10,8,2,15,4,24,0.01,5,Rain,213
2012-10-4,73,66,59,57,53,50,93,69,46,30.15,30.11,30.05,10,10,10,17,6,22,0.00,0,,209
2012-10-5,66,60,53,57,55,50,94,82,65,30.04,29.98,29.91,10,9,4,16,10,23,0.16,7,Rain,236
2012-10-6,54,51,48,49,42,31,93,75,48,30.06,29.93,29.85,10,8,2,21,8,32,0.77,8,Rain,277
2012-10-7,50,46,41,43,41,35,93,85,57,30.15,30.07,30.05,10,9,2,10,5,18,0.19,7,Rain,234
2012-10-8,52,46,41,41,38,34,89,75,54,30.24,30.21,30.15,10,10,9,12,8,,0.01,7,Rain,196
2012-10-9,57,48,39,42,38,33,93,71,51,30.22,30.11,29.97,10,10,10,10,6,,0.00,0,,214
2012-10-10,53,49,45,44,38,27,86,67,44,30.09,29.91,29.82,10,10,6,20,12,32,0.09,6,Rain,242
2012-10-11,57,50,44,33,29,23,60,47,37,30.22,30.13,30.05,10,10,10,17,12,30,0.00,4,,249
2012-10-12,53,43,28,45,33,26,89,67,46,30.47,30.31,30.08,10,10,8,16,10,24,0.10,5,Rain,331
2012-10-13,57,42,27,46,29,19,89,58,38,30.45,30.28,29.95,10,10,10,26,6,39,0.02,3,Rain,170
2012-10-14,77,64,53,57,54,47,83,65,48,29.96,29.81,29.59,10,10,8,24,18,34,0.07,6,Rain,192
2012-10-15,66,57,48,56,46,39,89,78,66,29.86,29.71,29.52,10,9,2,25,16,37,0.21,8,Rain,249
2012-10-16,50,44,37,41,38,35,93,73,59,29.96,29.91,29.86,10,10,9,15,9,22,0.00,6,,290
2012-10-17,69,58,46,44,40,36,71,50,37,29.90,29.82,29.74,10,10,10,16,11,26,0.00,1,,181
2012-10-18,71,59,48,48,44,36,90,64,39,29.84,29.72,29.64,10,9,5,23,12,33,0.52,3,Rain,168
2012-10-19,64,52,39,51,44,37,96,72,48,29.80,29.69,29.61,10,10,7,18,5,26,0.00,2,Rain-Thunderstorm,120
2012-10-20,53,50,46,47,43,38,93,81,57,29.85,29.72,29.64,10,9,2,17,10,24,0.42,7,Rain,228
2012-10-21,57,50,43,47,44,39,89,76,67,30.12,30.03,29.88,10,10,10,20,11,30,0.00,3,,242
2012-10-22,64,54,45,51,44,39,86,71,50,30.16,30.11,30.04,10,10,10,9,5,,0.00,1,,223
2012-10-23,62,60,57,58,56,52,100,92,77,30.07,30.03,30.00,10,5,1,8,2,,0.31,8,Rain-Thunderstorm,202
2012-10-24,64,60,55,61,57,54,100,96,86,30.10,30.07,30.05,10,4,0,7,0,,0.03,8,Fog-Rain,11
2012-10-25,82,68,55,56,52,47,100,64,34,30.08,30.03,29.95,10,8,1,15,4,26,0.01,1,,191
2012-10-26,73,60,48,55,50,44,93,76,55,30.19,30.10,29.96,10,9,6,22,15,32,0.08,5,Rain,346
2012-10-27,48,47,46,47,45,41,100,92,81,30.17,30.06,30.00,10,5,2,18,10,24,0.78,8,Rain,33
2012-10-28,45,44,42,41,40,39,93,89,81,30.10,30.02,29.92,10,6,2,16,12,25,0.37,8,Rain,33
2012-10-29,45,42,41,41,40,39,93,90,87,29.91,29.68,29.24,10,6,2,33,17,47,1.30,8,Rain,4
2012-10-30,54,48,42,52,43,35,94,81,59,29.38,29.18,29.03,10,8,2,29,19,40,0.24,7,Rain,61
2012-10-31,46,42,37,43,38,33,93,83,66,29.51,29.44,29.38,10,9,2,16,5,25,0.25,8,Rain,212